Weather Roundup
Issued by NWS Springfield, MO

Home | Current Version | Previous Version | Text Only | Print | Product List | Glossary On
Versions: 1 2 3 4 5 6 7 8 9 10 11 12 13 14 15 16 17 18 19 20 21 22 23 24 25 26 27 28 29 30 31 32 33 34 35 36 37 38 39 40 41 42 43 44 45 46 47 48 49 50
000
NZUS99 KSGF 250559
HRRSGF

HOURLY WEATHER
NATIONAL WEATHER SERVICE SPRINGFIELD MO
1200 AM CST THU DEC 25 2014

......SGF CWA......

CITY           SKY/WX    TMP DP  RH WIND       PRES   REMARKS
SPRINGFIELD    CLEAR     31  27  85 S9        29.89F WCI  23
6HR MIN TEMP:  28; 6HR MAX TEMP:  37;

JOPLIN         CLEAR     32  28  85 S10       29.90S WCI  24
6HR MIN TEMP:  29; 6HR MAX TEMP:  36;

WEST PLAINS    CLOUDY    36  28  73 W8        29.93R WCI  30
6HR MIN TEMP:  36; 6HR MAX TEMP:  38; 6HR PCP: TRACE;

ROLLA          CLOUDY    35  29  78 W12       29.86S WCI  27
6HR MIN TEMP:  35; 6HR MAX TEMP:  35;

OSAGE BEACH    CLOUDY    36  27  69 SW7       29.89S WCI  30

......SURROUNDING SGF CWA......

CITY           SKY/WX    TMP DP  RH WIND       PRES   REMARKS
CHANUTE        CLEAR     32  29  88 S10       29.85F WCI  24
PARSONS        CLEAR     32  29  88 S6        29.87F WCI  26
COFFEYVILLE    CLEAR     30  28  92 S6        29.88F WCI  24
EMPORIA        CLEAR     28  25  88 S13       29.79S WCI  17
SILOAM SPRINGS CLEAR     30  25  80 S8        29.94F WCI  23
HARRISON AR    CLEAR     30  27  88 S6        29.94F WCI  24
NEAR YELLVILLE CLEAR     36  27  69 SW5       29.96S WCI  32

......KANSAS AND MISSOURI......

CITY           SKY/WX    TMP DP  RH WIND       PRES   REMARKS
KANSAS CTY INT CLEAR     30  29  96 S14       29.79F WCI  19
DOWNTOWN KC    CLEAR     32  28  85 S8        29.81F WCI  25
COLUMBIA       CLOUDY    35  30  82 W20       29.86S WCI  24
SEDALIA        CLEAR     34  29  82 SW8       29.86F WCI  27
ST JOSEPH      CLEAR     29  27  92 S8        29.79S WCI  21
ST LOUIS       CLOUDY    38  34  85 W5        29.87R WCI  34
SPIRIT OF STL  CLOUDY    38  33  82 SW8       29.87R WCI  32
KIRKSVILLE     CLOUDY    33  30  88 SW8       29.81R WCI  26
WICHITA        CLEAR     31  23  72 S9        29.79S WCI  23
TOPEKA         CLEAR     33  29  85 S10       29.80R WCI  25
OLATHE         CLEAR     31  28  89 S10       29.80F WCI  22

......TENNESSEE......

CITY           SKY/WX    TMP DP  RH WIND       PRES   REMARKS
MEMPHIS        CLOUDY    43  35  73 W7        30.01R
NASHVILLE      CLOUDY    42  36  79 VRB7      29.94R

......ARKANSAS.......

CITY           SKY/WX    TMP DP  RH WIND       PRES   REMARKS
FAYETTEVILLE   CLEAR     30  27  88 S5        29.94F WCI  25
FT SMITH       CLEAR     31  27  85 CALM      29.99F
LITTLE ROCK    CLEAR     39  29  67 SW5       30.03F

......OKLAHOMA.......

CITY           SKY/WX    TMP DP  RH WIND       PRES   REMARKS
TULSA          CLEAR     35  30  82 S12       29.90F WCI  27
PONCA CITY     CLEAR     36  26  67 S8        29.85S WCI  30
MCALESTER      MOCLDY    35  28  75 SW5       29.96F WCI  31
OKLAHOMA CITY  CLEAR     31  23  72 S8        29.88S WCI  23

......IOWA............

CITY           SKY/WX    TMP DP  RH WIND       PRES   REMARKS
DES MOINES     CLOUDY    32  27  81 SW16      29.74S WCI  21
QUAD CITIES    CLOUDY    35  29  78 W12       29.74R WCI  27

......ILLINOIS........

CITY           SKY/WX    TMP DP  RH WIND       PRES   REMARKS
QUINCY         CLOUDY    35  29  78 W9        29.82R WCI  28
CHICAGO        CLOUDY    36  31  82 W15       29.63R WCI  27



USA.gov is the U.S. government's official web portal to all federal, state and local government web resources and services.